User: anonymous   Login
Location: STAR School
(35.3054°N, 111.2976°W)
Time: 23:53:19
(UTC-07:00)
Language:

Transit 2A Rocket - Orbit

View from above orbital plane
View from above orbital plane
View from above satellite
View from above satellite

Ground track
Ground track

The orbit data is extracted from the following two-line orbital elements,

1    47U 60007C   19143.19183435 -.00000052  00000-0  13555-4 0  9997
2    47  66.6643 121.1270 0233871 230.7582 127.2562 14.42035385 78701
Epoch (UTC): 23 May 2019 04:36:14
Eccentricity: 0.0233871
inclination: 66.6643°
perigee height: 585 km
apogee height: 918 km
right ascension of ascending node: 121.1270°
argument of perigee: 230.7582°
revolutions per day: 14.42035385
mean anomaly at epoch: 127.2562°
orbit number at epoch: 7870

The dashed part of the orbit path shows where the satellite is in the earth's shadow,  

DLR